Wind_Speed
22 22 23 24 24 25 25 26 26 26 26 26 25 25 25 24 23 21 20 18 16 14 13 12 12 13 12 11 12 12 15 14 11 8 8 9 6 4 4 6 13 17 17 16 15 13 11 9 8 9 7 4 3 1 1 3 3 4 2 5 6 7 7 7 7 7 8 10 9 8 7 5 6 4 2 4 3 4 4 4 4 6 7 8 10 14 14 14
22 23 23 24 25 25 26 26 26 26 26 26 26 26 25 24 23 21 20 18 16 13 12 11 11 12 11 10 11 12 15 12 11 11 9 10 10 8 5 7 14 17 18 16 15 12 8 7 9 9 6 3 2 1 1 1 2 4 4 6 6 7 7 7 8 9 9 10 10 8 5 3 5 5 3 4 5 5 5 6 6 8 9 10 12 12 13 13
23 23 24 25 25 26 26 27 27 27 26 26 26 27 25 23 22 20 19 17 15 13 11 10 11 11 9 9 10 12 13 9 10 4 1 5 8 11 8 7 14 18 16 12 11 7 3 4 9 8 5 2 1 1 1 1 1 4 4 6 7 6 8 7 7 8 9 11 11 8 5 3 5 4 2 3 5 5 3 5 6 8 10 10 11 11 12 11
24 24 25 25 26 26 27 27 27 27 27 27 27 27 25 22 21 20 18 16 14 11 10 9 10 9 8 7 8 10 9 8 4 5 6 8 5 10 11 8 15 18 10 7 8 4 2 5 9 7 5 2 2 1 1 2 1 4 5 6 7 5 7 7 7 9 10 9 8 8 6 4 5 3 2 3 4 4 3 3 4 7 10 11 11 12 12 11
24 25 25 25 26 26 27 27 28 28 27 28 28 27 24 21 20 19 18 15 12 10 8 9 9 8 6 6 7 8 7 5 2 7 9 10 3 10 11 9 17 16 7 7 7 5 5 6 7 6 5 1 2 1 3 4 2 3 7 7 7 6 7 7 7 8 8 7 7 7 5 4 6 4 3 4 2 3 3 3 4 6 10 11 11 12 11 11
24 25 25 26 26 27 27 28 28 28 28 29 28 26 23 20 19 18 17 14 11 8 7 8 7 6 4 4 6 6 6 2 5 6 10 9 1 12 12 13 18 13 8 9 8 6 6 6 6 3 4 2 5 4 5 4 2 2 7 7 8 8 8 7 7 7 5 5 6 4 4 5 5 4 4 5 2 4 2 3 5 6 10 11 11 11 10 10
24 24 25 26 26 27 28 28 29 29 29 29 29 26 22 20 19 18 17 12 8 7 6 7 5 4 3 3 4 3 7 1 6 7 10 5 6 13 14 17 18 12 10 10 7 6 5 5 4 5 5 3 6 5 4 4 0 3 7 7 8 9 8 7 7 6 4 4 4 3 3 4 3 2 3 4 3 3 2 1 4 7 11 12 11 10 10 9
24 24 25 26 26 27 28 29 29 29 30 30 28 25 22 21 21 18 15 10 6 5 5 5 3 1 2 1 3 5 6 3 7 7 6 3 9 15 17 18 15 11 11 10 6 4 4 4 3 7 5 6 6 4 3 4 2 5 7 7 7 8 9 8 7 6 5 4 3 3 3 3 2 0 1 3 3 3 1 1 5 7 10 11 10 10 9 8
24 25 25 26 27 28 29 29 30 30 30 30 28 24 22 22 20 16 11 7 3 4 5 4 1 1 2 1 4 4 2 7 10 9 6 5 11 17 18 14 13 12 11 9 5 5 4 3 4 6 6 5 6 3 2 3 3 6 6 7 6 8 8 7 7 6 5 3 2 4 3 2 2 1 1 2 3 3 3 4 6 8 9 10 10 10 8 7
24 25 26 27 27 28 29 30 30 30 31 30 27 24 23 21 17 12 7 4 3 3 4 2 2 3 1 2 6 4 4 8 9 10 6 6 12 17 15 10 12 12 10 7 6 6 4 4 5 6 6 4 5 3 1 2 5 6 6 8 7 7 7 5 6 6 4 3 1 2 2 2 2 3 0 4 4 4 5 6 7 8 9 10 10 9 8 7
25 25 26 27 28 29 30 30 30 30 31 29 26 24 22 18 13 8 4 2 2 3 2 2 4 4 0 4 7 2 6 6 6 9 5 7 12 15 13 9 11 12 9 7 6 7 6 4 5 6 4 4 4 1 2 3 5 7 7 8 7 5 6 5 5 5 3 3 1 3 1 2 4 2 2 5 5 5 6 6 7 7 8 9 9 9 8 7
26 26 27 28 28 29 30 31 30 30 31 28 26 23 19 14 9 5 3 2 2 2 1 3 5 4 1 6 7 3 1 1 3 5 3 7 10 10 9 9 10 10 8 7 4 4 7 5 6 7 5 6 3 2 3 3 5 6 4 4 7 5 5 5 5 5 2 2 2 2 2 4 4 2 5 5 5 5 5 5 6 6 6 7 7 7 7 8
27 27 28 28 29 29 30 31 30 30 30 26 24 20 16 12 6 2 2 2 2 0 2 4 5 3 3 5 2 4 6 6 6 5 2 6 7 6 7 8 9 9 8 8 4 2 4 5 7 7 6 6 2 3 2 5 4 4 3 1 4 5 5 6 5 5 2 3 2 2 0 4 4 4 6 5 5 5 4 4 5 5 5 5 6 6 7 8
27 28 29 29 30 30 30 31 30 31 28 24 21 16 13 9 3 1 1 2 1 1 4 4 4 2 5 4 1 4 6 6 8 7 5 8 7 6 7 7 8 9 7 8 5 3 4 4 7 7 4 4 1 2 4 5 4 3 2 3 3 0 5 7 5 5 3 4 3 4 1 6 5 4 6 5 4 5 4 5 5 5 4 4 5 6 7 8
27 28 29 30 30 30 30 30 31 30 26 21 17 12 9 6 3 1 1 1 1 3 4 4 2 2 6 4 2 3 4 5 7 6 5 9 8 6 8 8 7 7 6 6 5 3 3 4 7 6 1 2 3 5 5 3 4 3 2 1 1 2 5 7 6 5 2 4 6 5 2 5 5 4 5 5 4 4 3 5 5 5 5 5 5 6 6 6
27 28 29 30 30 30 31 30 31 30 24 17 13 8 6 5 4 2 1 1 2 4 4 2 2 3 6 1 4 3 2 3 2 2 4 7 8 4 6 7 5 6 5 4 5 4 4 5 5 4 1 4 5 5 4 3 4 3 3 3 3 2 5 6 4 5 2 3 5 3 3 4 6 4 4 4 4 5 3 4 5 5 6 6 5 6 5 4
28 29 30 30 31 30 31 30 31 30 21 14 9 5 4 4 3 2 2 2 2 3 1 1 1 4 5 1 4 4 3 2 1 1 2 5 7 4 5 6 5 6 5 4 5 6 6 5 3 3 4 4 3 4 4 1 2 2 2 3 3 2 3 4 4 5 5 3 2 2 2 3 5 4 4 4 5 5 4 4 6 6 6 6 6 6 5 5
29 30 30 31 30 30 31 30 32 28 18 11 6 2 3 2 3 2 1 2 1 1 2 2 2 4 3 3 3 2 2 0 1 3 4 5 6 6 6 4 4 5 6 5 5 7 6 5 4 4 4 4 3 5 4 5 6 5 5 5 2 1 1 3 4 7 7 4 1 2 1 2 3 3 3 4 5 4 4 4 5 5 5 5 5 6 5 6
30 30 30 32 31 30 30 30 32 26 15 9 3 1 1 1 2 2 5 3 3 5 3 2 5 4 0 2 1 2 1 3 4 5 6 6 6 7 6 4 5 6 6 6 7 7 5 4 5 5 4 3 2 4 6 7 7 9 7 6 4 1 2 5 7 8 8 4 3 2 0 3 3 2 3 3 4 3 3 3 3 3 3 4 5 5 6 7
30 30 31 32 31 31 29 30 31 21 12 7 2 4 3 3 2 4 5 7 8 9 9 5 7 8 6 3 2 3 3 4 5 7 8 8 7 8 7 6 6 7 7 5 6 5 4 6 7 6 4 2 4 5 7 7 6 8 8 6 4 1 2 6 8 9 7 3 2 1 1 1 1 1 2 2 3 3 3 3 2 2 3 3 4 5 7 8
30 30 32 33 32 32 28 31 29 14 9 7 3 5 3 3 4 1 1 6 8 9 12 9 8 10 9 6 4 5 3 4 6 7 9 9 8 8 7 7 8 7 7 4 2 3 4 7 7 6 5 5 6 5 6 7 7 7 7 6 3 1 4 6 6 8 7 3 2 2 4 1 2 1 2 2 3 2 2 2 2 2 3 3 4 5 6 5
30 30 33 33 33 32 28 32 25 8 8 6 4 5 2 5 4 3 4 7 6 6 9 8 7 9 9 9 6 3 4 5 8 9 8 8 9 8 6 7 10 7 7 5 4 4 7 9 7 3 3 3 5 5 5 7 8 7 5 5 3 3 7 6 4 8 7 2 1 3 4 1 3 1 3 2 2 1 0 1 2 3 4 3 3 4 4 3
29 31 33 33 34 32 29 31 18 2 8 7 6 4 2 3 4 3 5 7 4 4 6 7 8 8 8 8 5 7 7 5 8 11 11 10 10 8 5 8 10 8 7 8 8 7 7 6 4 2 1 4 6 6 6 7 7 5 4 5 2 5 4 3 6 9 7 2 1 1 4 1 4 3 4 2 1 2 1 1 2 3 3 4 3 2 2 2
30 31 33 34 35 31 30 28 9 2 8 8 6 2 1 2 5 4 5 6 4 3 3 4 5 7 6 3 6 11 7 3 4 8 12 12 8 6 6 7 9 9 7 8 10 10 5 3 5 3 1 4 6 6 6 6 6 2 2 5 3 2 3 2 8 9 7 5 2 3 5 2 4 3 4 4 3 3 3 2 2 3 2 2 3 2 1 2
30 31 32 34 34 31 30 18 2 1 13 8 6 4 1 4 4 4 5 5 3 3 3 3 3 4 4 3 6 8 5 4 4 6 11 12 7 6 5 4 5 9 9 7 8 10 6 4 4 3 4 5 6 7 4 5 6 1 5 5 6 0 2 6 11 9 5 4 3 5 5 3 6 2 3 4 3 4 3 3 3 3 2 1 1 1 2 3
30 30 32 34 34 34 24 5 3 10 14 3 6 5 2 6 4 4 4 4 3 3 3 4 3 4 6 6 7 5 5 6 4 5 9 9 6 5 5 4 4 7 5 6 5 6 4 3 4 7 8 7 8 8 4 4 8 2 5 5 5 2 5 9 10 6 1 2 3 6 5 2 6 3 2 3 1 3 4 4 3 3 2 1 1 2 3 3
29 30 33 33 34 32 17 4 9 14 7 3 5 5 3 7 3 5 4 4 3 2 2 2 1 3 4 5 8 5 3 7 8 6 7 6 6 4 6 7 5 4 3 4 5 4 5 5 6 8 8 8 9 6 0 3 8 3 6 6 4 4 7 9 7 3 2 3 5 5 4 3 3 4 2 2 1 2 3 4 3 3 2 2 2 3 3 2
29 30 33 32 32 29 14 10 12 8 2 3 5 5 5 6 4 5 6 2 3 0 1 3 2 2 2 4 7 4 1 6 7 7 6 6 6 4 8 8 7 7 5 6 6 3 4 7 6 5 7 8 6 3 4 4 7 4 5 4 2 3 6 6 4 1 2 2 3 4 2 4 3 4 0 1 1 1 2 4 3 3 3 4 3 3 4 3
30 31 32 32 31 24 12 10 9 5 4 5 6 3 5 4 4 4 6 1 2 1 1 3 3 5 5 5 7 5 1 2 2 5 8 8 5 4 5 5 6 6 5 7 7 3 3 1 1 2 6 4 1 4 4 5 5 3 1 2 2 3 4 4 4 0 0 4 2 2 2 4 3 4 1 0 0 0 1 3 3 4 4 4 3 3 4 4
31 30 31 32 26 14 7 8 9 7 7 8 4 3 3 5 4 5 4 1 1 2 2 2 3 6 7 8 8 6 4 2 3 6 8 6 7 5 1 0 5 6 5 7 8 3 1 1 2 4 5 2 2 3 2 5 3 1 4 5 5 3 2 3 2 1 3 3 1 2 2 3 2 3 2 2 1 1 0 2 3 4 5 5 3 3 3 3
31 29 29 28 19 7 5 4 3 6 10 7 2 3 5 4 4 5 1 2 1 3 4 5 5 6 9 9 8 7 6 3 5 7 7 6 8 8 4 3 4 6 7 7 8 8 7 6 4 4 3 2 3 2 1 3 4 5 5 4 4 3 2 4 3 3 5 0 2 3 1 2 3 3 3 1 2 1 2 1 4 4 4 4 4 3 3 3
30 28 24 19 12 8 7 3 1 6 9 4 3 5 5 4 5 2 3 2 2 2 3 4 6 8 10 8 6 8 7 4 5 7 7 7 7 7 8 7 5 7 9 7 9 9 9 10 9 6 5 5 7 5 4 5 5 6 5 5 5 3 3 5 3 3 3 2 1 4 1 1 1 4 3 3 3 2 1 2 5 5 4 4 5 4 3 3
29 24 15 8 5 5 6 6 7 8 6 4 4 5 5 5 3 2 2 2 1 2 1 3 5 7 8 8 6 7 6 4 6 6 6 7 7 7 9 7 4 7 7 6 9 8 7 10 12 10 7 8 9 7 5 6 6 7 5 5 5 3 4 4 2 3 1 3 3 1 1 2 2 5 4 5 3 1 1 3 5 5 4 5 5 4 4 4
25 15 6 4 6 6 4 6 9 8 6 6 5 5 6 4 1 1 1 2 4 2 2 3 6 6 8 9 7 8 7 4 6 5 6 7 7 7 8 7 7 7 5 4 5 7 9 7 11 13 8 9 12 11 7 3 4 6 4 5 5 4 4 4 3 3 2 3 3 2 2 3 2 5 5 4 3 2 2 4 5 5 5 5 5 4 4 5
18 6 3 5 7 8 4 3 7 8 6 6 5 6 6 2 2 1 0 4 2 3 4 4 7 8 8 8 7 7 6 4 7 7 6 8 7 7 7 8 10 9 7 6 3 6 9 5 6 9 5 7 12 12 8 6 4 4 2 5 5 3 3 3 4 5 4 1 2 3 2 3 4 5 6 4 4 4 3 4 6 6 6 5 4 5 4 5
13 2 2 3 4 7 4 4 7 8 5 5 6 5 2 2 2 1 2 2 1 1 4 6 7 7 7 7 8 9 5 3 7 7 6 8 7 7 8 6 10 11 8 6 2 3 8 6 6 7 4 6 6 6 8 8 4 3 4 6 0 4 5 4 3 2 4 5 1 2 2 5 3 4 8 7 6 6 5 5 6 6 6 5 4 5 5 6
11 2 1 2 3 6 2 5 4 5 5 6 5 3 2 2 2 3 2 1 2 1 5 7 5 5 6 7 8 10 8 5 6 7 6 7 6 7 9 6 8 13 11 8 4 2 5 6 8 8 9 8 2 3 7 7 6 3 4 3 4 1 5 5 4 3 4 5 1 1 3 3 4 4 8 9 8 8 7 6 5 4 6 5 5 6 6 7
10 4 1 3 7 7 1 1 1 4 5 5 5 3 2 1 2 2 2 2 2 4 6 4 2 4 6 7 8 10 10 6 7 7 5 6 5 6 11 9 8 12 13 11 6 1 3 5 6 7 7 8 6 6 7 7 8 7 4 1 2 4 4 4 4 4 4 4 1 1 3 1 0 3 8 11 9 9 8 8 6 5 6 6 7 7 7 7
6 4 2 4 8 8 3 2 4 5 5 5 4 1 0 1 2 2 3 3 3 4 5 3 2 3 5 5 7 10 10 8 7 6 6 5 4 5 8 8 9 13 14 12 7 2 3 6 4 7 6 7 8 8 7 8 9 7 5 4 5 5 3 1 3 4 4 4 1 1 1 1 4 3 7 11 10 10 9 9 6 5 7 6 7 8 7 7
5 4 2 5 7 7 3 4 5 5 4 3 2 1 1 2 2 2 2 3 5 4 3 1 2 5 5 4 5 7 9 8 6 5 5 5 4 5 7 8 8 11 13 12 9 4 4 5 3 7 8 6 8 9 8 7 8 8 7 7 6 4 2 2 3 2 4 5 2 2 2 3 5 2 6 10 10 9 9 10 5 5 7 8 8 8 7 7
4 3 3 5 6 5 3 5 4 3 3 2 1 1 2 4 4 3 1 3 5 4 3 4 2 3 4 5 5 6 7 7 7 6 4 6 6 5 7 9 9 10 10 10 9 7 5 5 4 4 7 9 9 7 4 5 5 6 8 8 7 6 4 4 4 2 3 4 3 4 3 4 5 2 4 8 10 9 9 10 7 6 8 8 8 9 7 6
4 2 3 5 6 3 5 5 2 1 3 0 2 3 3 4 4 3 1 2 4 3 3 4 3 2 4 5 4 5 6 6 7 7 5 6 8 4 6 7 8 10 10 9 10 9 5 4 5 4 6 6 5 3 2 5 6 6 6 7 7 6 6 6 4 2 3 3 3 4 3 3 5 1 2 6 10 9 9 9 7 7 8 8 8 9 7 6
2 2 2 4 6 3 6 4 2 3 2 2 3 3 3 3 3 3 2 0 2 3 3 3 2 2 2 2 3 4 6 6 6 8 6 6 7 3 6 7 8 10 10 8 9 8 3 4 5 5 5 2 5 3 1 1 4 7 7 7 7 7 7 6 4 3 3 3 3 4 2 3 5 3 2 6 10 9 9 8 7 8 8 7 9 9 6 5
3 2 0 4 4 3 5 3 1 1 1 2 3 0 1 2 3 4 3 3 2 1 2 0 0 1 1 0 2 2 3 4 5 6 5 4 3 2 3 8 9 9 9 7 8 8 5 6 6 6 6 6 6 6 5 5 5 7 8 8 10 10 8 6 3 3 4 3 4 5 1 4 6 5 6 8 10 10 9 8 7 8 7 7 8 7 6 5
3 2 1 1 1 2 3 3 3 3 3 3 3 3 2 2 1 3 4 4 4 3 2 2 1 1 1 1 1 1 1 3 2 2 3 4 2 3 1 8 10 11 8 3 4 8 7 6 6 7 8 9 9 8 6 6 7 7 7 9 10 11 11 7 4 6 5 1 4 6 1 6 7 8 10 11 10 10 10 9 7 7 7 8 7 6 5 5
3 1 1 1 1 0 1 2 4 4 4 4 2 4 6 2 2 1 3 2 4 5 3 3 1 2 0 1 2 2 2 2 1 0 0 2 1 3 3 5 10 10 4 3 4 8 5 5 7 8 8 6 4 0 2 2 7 9 10 11 12 13 13 10 7 6 2 1 4 3 3 8 11 12 12 12 11 10 10 9 9 8 8 8 7 5 5 4
3 1 2 1 1 0 2 2 4 3 3 5 3 4 7 5 3 1 1 2 4 4 2 3 3 2 3 2 1 2 3 3 1 2 2 3 2 4 4 3 9 7 4 4 9 8 5 7 9 9 9 6 4 3 2 2 7 9 9 11 13 13 13 12 9 3 1 3 4 2 5 9 12 13 13 12 11 10 9 9 8 8 8 8 7 5 5 5
2 1 2 2 2 1 0 2 5 5 4 4 3 4 6 7 7 5 3 4 4 5 2 3 6 7 6 5 3 2 2 3 3 5 4 5 4 3 4 3 8 9 6 9 10 6 6 7 8 8 10 7 4 3 3 5 6 7 7 9 12 13 13 14 10 4 5 6 2 4 9 8 10 12 12 12 11 8 9 9 9 8 8 8 7 6 5 5
3 1 2 2 2 3 3 4 5 5 4 3 2 4 7 8 9 7 5 4 3 6 6 3 6 8 6 5 4 4 5 3 3 6 6 7 7 2 2 4 7 10 9 9 8 5 5 5 5 7 9 6 4 4 5 6 6 6 7 8 10 11 12 11 7 5 7 4 2 5 10 7 9 10 11 12 11 9 9 9 9 9 9 8 7 6 6 6
3 3 3 3 3 2 3 4 5 4 2 2 2 4 6 7 10 9 6 4 3 7 8 7 9 9 5 4 4 5 7 7 5 6 8 8 6 3 3 3 4 8 9 8 7 6 4 3 5 6 7 6 4 4 6 8 7 7 6 6 7 9 9 8 6 5 5 3 1 7 10 8 8 10 12 13 12 11 10 9 9 9 9 8 7 7 7 7
5 3 5 5 2 2 2 2 3 3 1 2 3 5 6 6 11 11 5 2 4 6 8 10 11 9 3 2 4 6 7 8 8 9 11 9 7 5 3 2 0 6 9 8 7 7 6 4 4 6 7 5 4 5 8 9 9 9 7 5 5 7 6 5 4 4 3 4 6 8 9 7 7 11 13 12 12 12 11 10 9 8 8 8 8 9 9 8
7 3 4 5 2 1 2 2 2 3 1 3 4 5 6 6 9 10 4 1 2 4 7 10 11 8 3 3 6 9 11 12 12 11 10 9 9 8 6 5 5 4 6 7 6 7 7 5 4 6 7 4 4 5 7 8 10 8 4 2 2 4 3 2 3 3 2 3 5 5 5 9 11 12 14 13 13 12 11 9 9 9 9 8 8 9 9 8
Wind_Direction
6 5 4 3 2 360 359 357 356 354 353 351 350 349 346 342 339 336 334 334 333 329 322 321 321 323 329 334 337 337 332 328 311 279 248 271 288 242 244 181 171 161 153 153 156 156 161 175 171 179 196 199 226 249 213 259 275 271 308 35 35 34 38 26 44 94 133 136 140 150 166 173 138 134 153 155 144 128 121 95 95 84 79 91 106 120 130 140
3 3 1 0 359 357 356 355 353 352 351 350 348 347 344 340 337 334 332 332 331 325 320 319 319 324 331 336 341 337 334 324 284 266 250 269 269 241 233 178 174 162 153 161 168 169 171 173 173 187 210 215 185 196 235 241 275 301 353 45 45 37 45 40 63 106 132 133 141 145 160 171 125 124 171 178 142 145 132 110 125 110 100 111 118 125 135 145
1 1 359 358 357 355 353 352 351 350 349 348 346 345 342 339 336 332 331 330 328 322 316 315 318 324 332 340 343 341 338 307 269 259 307 305 273 234 214 179 176 163 158 177 182 182 193 174 179 192 228 246 141 224 238 143 316 335 352 43 53 51 58 54 69 102 121 130 142 141 152 158 120 129 191 178 143 153 125 109 142 133 127 134 134 139 146 152
359 358 357 357 355 353 352 350 349 348 348 346 345 342 340 338 334 331 329 328 326 317 310 313 318 323 335 346 344 346 330 278 253 66 25 350 312 218 197 176 172 164 166 194 183 188 202 166 179 206 252 259 113 203 65 74 309 4 18 44 55 67 70 58 72 103 120 131 136 135 155 155 135 156 183 176 157 145 126 113 149 147 144 147 147 152 155 159
358 357 356 355 354 352 350 349 348 347 347 346 343 340 339 337 333 330 327 327 323 311 307 309 318 325 337 350 349 349 310 258 104 48 3 354 329 195 184 170 166 163 177 183 167 175 171 165 188 219 259 289 60 205 73 64 275 24 51 52 52 69 80 73 83 104 119 128 132 136 150 140 144 169 168 195 207 91 125 158 160 157 154 154 155 157 161 166
357 356 354 354 353 351 350 348 347 346 346 345 342 339 337 334 332 328 324 325 317 303 303 309 319 324 338 359 357 343 283 260 71 8 349 358 128 171 170 165 162 166 184 174 166 172 165 183 207 251 289 318 24 27 69 81 283 28 69 62 57 72 88 97 99 103 118 128 128 129 130 135 156 167 161 203 226 74 80 178 171 165 162 160 159 160 167 172
357 356 354 354 352 351 349 348 347 346 346 344 341 337 334 330 328 324 321 322 309 297 300 309 319 316 352 12 347 294 258 316 50 350 343 4 141 158 164 164 164 172 187 182 180 180 181 209 238 317 319 7 29 29 77 121 186 36 76 75 69 80 93 106 110 112 122 117 107 116 146 164 183 150 154 213 206 121 62 242 191 168 163 165 165 169 175 177
358 357 355 355 353 351 349 348 347 346 345 342 339 336 331 327 325 321 318 317 300 291 295 307 321 328 40 5 303 256 241 33 41 1 358 75 144 157 159 163 174 184 195 199 198 201 218 235 300 325 335 26 11 18 104 165 132 56 78 92 88 91 99 109 119 127 129 115 118 154 164 171 190 163 213 225 204 157 91 230 192 165 165 173 173 176 182 184
359 358 356 355 353 351 349 348 346 346 345 341 338 333 328 325 324 318 315 314 287 287 298 299 261 134 82 282 280 258 206 60 50 35 46 117 148 157 159 168 186 193 205 213 222 230 242 281 355 339 331 2 356 30 138 236 74 75 91 106 106 102 108 120 127 131 132 126 164 182 165 148 168 232 236 156 141 144 156 190 181 168 173 180 178 179 187 192
360 359 357 355 353 351 350 348 346 346 344 340 336 331 328 328 324 317 313 307 276 291 299 277 166 144 108 260 257 241 108 73 54 40 55 142 153 161 172 186 191 199 216 216 225 233 255 324 355 327 304 318 348 43 69 337 77 103 105 106 112 113 118 128 124 125 129 123 204 230 157 122 167 227 160 110 126 145 159 174 177 176 179 182 180 179 189 199
0 359 357 355 353 351 350 348 347 345 343 340 334 330 331 332 327 319 307 284 286 300 287 190 150 138 278 264 251 222 104 91 56 35 50 149 161 174 190 199 196 209 223 222 233 240 253 313 331 303 299 330 333 99 74 55 112 120 113 110 117 124 125 132 122 123 135 123 171 287 286 187 196 216 83 103 134 155 160 161 171 182 181 184 182 177 187 203
360 358 356 354 352 351 350 349 348 345 342 338 333 332 335 338 335 328 302 280 301 302 176 167 152 121 311 253 248 266 181 165 22 24 72 155 172 187 203 209 209 221 230 238 253 253 257 273 290 296 333 331 310 120 89 130 151 135 144 124 126 151 141 137 131 123 130 95 108 304 273 183 175 122 88 106 132 142 151 150 162 173 177 185 182 179 189 202
358 357 354 353 352 351 350 349 348 345 342 337 333 335 338 339 339 339 312 305 331 26 132 153 148 113 273 254 238 270 252 255 305 319 204 178 189 202 214 218 220 231 240 255 287 333 273 259 269 293 323 313 339 66 105 160 182 166 195 245 152 171 140 136 138 138 153 82 92 278 104 105 100 98 94 105 133 136 137 140 153 157 162 178 181 190 197 201
356 354 353 352 350 349 349 349 347 345 342 336 334 339 346 349 347 18 330 318 2 111 130 139 138 136 257 271 74 265 263 268 287 283 220 195 200 201 206 218 226 233 244 258 276 316 292 257 257 268 277 293 14 142 183 172 203 201 211 237 210 153 109 141 149 156 169 112 151 261 29 83 78 99 112 118 139 142 135 138 145 143 150 173 185 199 204 204
353 353 351 349 348 348 348 348 347 345 341 336 335 346 3 17 51 74 20 11 83 116 107 122 150 223 259 259 187 250 269 256 262 259 217 195 200 200 192 206 222 225 235 249 258 285 281 247 252 262 210 226 219 202 201 180 205 235 271 215 170 38 112 141 152 167 182 123 170 256 6 93 86 82 117 136 143 145 139 130 138 144 157 178 192 206 209 202
351 350 348 347 346 346 347 347 347 345 340 335 335 354 26 46 57 44 60 81 120 114 94 129 172 251 276 268 135 162 183 211 236 220 203 198 214 200 155 176 196 200 211 231 246 250 249 240 253 285 258 215 224 235 240 213 185 197 287 5 40 40 111 125 161 175 182 141 171 246 342 84 95 94 125 150 154 153 149 136 144 153 164 183 202 215 206 180
350 349 347 345 343 344 346 346 346 343 339 335 334 2 42 58 68 47 71 106 125 106 82 280 190 250 270 124 155 179 160 143 107 159 207 216 228 209 159 173 167 168 188 203 220 221 222 228 229 238 238 234 254 269 264 283 61 87 325 6 61 34 73 133 182 169 179 209 165 193 309 52 87 103 128 160 170 164 166 156 159 168 175 187 210 224 199 180
349 348 345 343 342 342 344 345 345 341 337 334 327 6 46 76 89 65 114 115 82 184 228 242 235 243 214 177 200 158 117 107 272 262 249 225 223 215 205 207 174 171 188 191 197 204 204 208 231 246 232 225 243 262 294 15 6 353 350 351 52 99 103 140 144 146 171 212 168 170 207 89 102 89 101 152 173 175 179 171 171 177 182 182 204 235 217 198
345 345 344 342 341 340 342 344 343 339 335 335 314 299 330 188 149 191 206 205 224 239 253 175 213 267 324 200 296 11 281 283 271 245 220 195 190 202 210 217 208 204 207 193 184 196 212 214 230 250 235 215 246 294 327 357 345 333 336 330 330 3 102 93 103 135 162 183 180 191 110 100 122 101 85 131 165 181 182 182 193 184 189 193 202 231 236 228
343 343 342 341 340 339 341 342 341 338 334 336 266 253 266 243 240 191 200 225 234 256 285 280 249 276 294 275 354 352 282 248 231 212 189 178 179 190 196 201 206 212 225 219 179 180 233 244 234 246 263 322 329 314 317 323 322 312 307 312 317 313 110 107 120 142 165 192 163 165 288 125 118 88 79 107 154 183 188 200 224 204 208 226 228 235 242 247
340 340 340 339 338 337 339 340 339 337 343 350 226 247 305 345 325 2 324 256 234 246 266 273 268 270 278 284 322 342 310 213 202 185 174 178 188 193 182 192 212 210 211 217 172 159 228 248 246 256 288 328 320 309 310 306 298 292 299 311 295 177 98 98 122 141 164 229 126 163 255 208 113 50 95 132 173 182 192 216 250 263 254 255 256 256 255 255
339 339 337 336 336 336 338 338 336 335 1 2 230 256 4 29 349 342 322 282 249 237 248 255 259 264 268 268 270 281 272 223 192 176 171 179 195 203 174 189 223 213 181 186 206 203 222 244 246 247 304 303 286 290 293 292 289 285 289 294 295 115 104 97 129 149 159 227 122 179 258 122 106 91 110 152 188 132 69 268 278 289 290 283 270 272 270 252
339 337 335 335 335 334 337 336 331 328 5 344 258 274 61 37 340 285 260 281 274 216 226 236 239 249 249 245 216 199 226 229 194 174 170 186 199 211 202 201 223 220 187 196 215 223 224 238 225 171 281 274 268 270 274 281 272 270 290 297 343 131 156 134 157 164 163 223 356 235 258 143 126 149 132 135 137 118 144 210 271 280 286 295 308 332 318 274
338 336 335 334 333 333 336 335 322 176 351 323 263 264 115 326 327 273 248 278 274 188 200 229 239 250 245 222 175 193 213 230 205 161 164 193 193 187 219 219 222 224 213 210 221 237 248 70 86 123 203 264 277 266 268 291 276 264 27 322 351 144 258 51 136 159 169 200 242 257 250 168 140 164 137 131 149 162 175 194 219 241 261 290 315 355 31 41
335 335 334 334 332 332 334 334 187 253 332 309 221 191 194 319 315 257 257 269 231 158 164 188 215 228 202 156 177 198 217 207 211 150 163 197 189 167 206 219 232 228 210 203 221 243 251 111 123 236 260 254 276 278 283 319 295 310 71 355 341 245 208 117 139 165 180 182 219 257 269 116 117 120 114 127 158 164 175 216 203 189 205 251 304 39 86 88
333 334 334 334 332 331 335 346 171 315 318 279 175 179 240 319 300 222 255 265 191 134 155 180 187 174 167 170 170 184 215 187 151 133 162 193 196 196 209 176 223 248 205 189 225 251 243 151 185 252 269 264 269 272 272 311 290 291 60 358 327 207 174 149 159 193 187 98 210 250 289 53 100 77 84 117 137 151 174 219 199 168 182 181 24 62 76 88
331 333 332 332 331 333 337 309 306 313 302 149 159 198 277 313 271 189 242 243 165 110 152 163 147 155 158 168 170 189 198 137 125 146 169 188 181 201 221 188 197 234 191 193 226 233 214 205 215 235 253 258 260 261 196 303 290 339 27 333 286 197 181 171 187 237 47 99 194 214 280 300 88 61 29 102 137 181 184 208 190 172 161 108 73 85 88 85
330 331 331 330 328 329 319 285 300 305 265 152 175 218 303 302 209 193 257 238 115 46 171 112 85 169 154 162 191 227 74 129 159 155 155 190 187 193 219 214 214 203 181 215 221 163 183 210 205 218 239 240 252 328 28 306 291 4 11 308 259 205 189 187 219 250 64 262 216 153 245 275 85 85 259 143 181 218 192 204 187 161 133 106 94 93 97 96
329 329 329 327 324 324 311 275 271 256 228 196 192 263 308 251 197 222 261 267 107 212 151 109 138 178 172 164 194 222 152 163 196 124 145 184 205 233 237 221 225 206 179 232 237 135 109 203 15 287 260 246 351 21 5 292 301 38 50 227 171 186 187 205 243 117 139 267 290 91 241 286 59 90 141 133 83 7 166 184 160 133 119 109 107 106 111 112
327 328 329 325 322 322 306 272 256 230 199 192 212 300 257 207 217 238 226 117 123 137 117 161 162 166 175 172 183 202 196 150 90 133 159 171 190 211 277 191 228 229 202 225 245 242 162 324 334 274 270 315 10 33 351 282 287 163 190 177 146 150 180 228 241 302 255 243 26 12 277 297 360 87 66 21 33 354 323 143 126 125 120 116 121 115 109 104
327 329 329 321 311 285 251 267 257 204 192 200 261 253 221 204 238 256 167 98 195 134 153 182 155 164 187 187 181 182 195 170 132 168 175 160 184 193 190 188 205 230 221 218 231 231 223 225 227 222 230 293 256 203 164 225 217 217 222 198 168 148 192 230 189 213 258 264 37 324 302 295 314 76 81 82 135 232 277 103 102 106 112 120 122 106 93 89
329 330 325 314 299 257 233 223 151 173 181 204 268 226 224 218 226 264 85 152 209 144 163 171 156 180 192 198 193 176 186 186 164 192 197 186 193 192 201 207 191 208 223 223 216 213 219 223 222 211 199 233 244 216 173 188 208 226 232 228 228 202 205 231 205 211 251 93 210 284 313 238 5 82 119 154 146 184 261 23 70 94 120 130 119 108 100 91
333 333 324 316 311 273 248 234 222 204 195 242 249 222 240 245 221 62 91 177 117 75 83 152 163 181 190 199 192 173 185 183 167 195 209 203 208 197 200 219 225 226 234 224 210 209 214 210 210 217 211 211 232 233 198 187 202 219 225 230 245 256 241 242 240 238 228 110 161 248 292 242 129 116 156 149 131 187 137 55 62 88 110 116 111 111 103 90
338 336 331 354 350 336 299 238 218 210 216 235 226 218 244 251 109 83 195 93 74 103 121 154 169 175 197 205 183 175 201 194 173 193 194 199 220 209 196 206 219 237 250 230 220 219 222 209 197 207 205 187 208 236 254 254 212 213 241 263 265 286 281 276 291 305 18 99 136 154 230 292 68 128 146 131 143 196 138 90 86 92 99 105 110 109 103 101
346 355 31 17 359 359 353 201 176 173 195 224 228 233 249 253 97 173 160 76 85 153 138 163 184 181 192 201 179 185 222 206 179 200 207 202 214 215 207 199 199 218 234 220 218 220 234 248 177 180 176 180 203 224 248 273 242 191 228 256 259 302 306 303 307 327 335 283 159 179 211 36 54 132 139 151 178 181 158 118 119 117 110 112 115 110 105 102
358 41 44 24 359 360 20 123 143 166 208 246 237 232 262 15 32 6 42 44 323 137 149 173 191 191 178 179 182 187 215 223 182 197 212 210 220 222 219 202 187 202 219 216 205 207 236 242 164 164 185 192 210 220 216 242 248 167 211 230 193 358 305 283 257 243 280 269 168 211 222 99 113 163 151 171 188 181 178 137 119 116 113 114 107 106 105 98
357 351 20 81 17 353 49 96 110 192 237 253 245 271 353 36 16 8 20 329 301 238 203 186 184 207 178 169 185 183 187 202 193 202 200 198 219 219 214 211 189 200 214 232 242 217 253 237 169 183 206 176 162 251 211 231 255 219 222 202 110 33 266 269 270 224 245 260 159 233 268 152 175 179 155 176 190 189 176 127 112 124 125 122 110 105 100 98
338 304 218 73 10 350 330 69 335 237 245 245 240 282 319 42 33 358 340 309 264 227 230 212 179 221 192 176 182 176 180 185 179 198 202 184 187 195 204 208 194 200 212 227 237 161 260 248 162 172 199 156 158 228 203 199 232 254 304 300 205 248 228 208 254 264 260 268 188 187 268 256 183 122 160 184 189 186 165 129 137 152 133 123 116 115 109 104
300 257 166 61 1 347 328 287 273 245 242 239 225 187 310 336 16 323 304 282 247 224 230 231 169 215 211 185 168 165 183 194 175 191 210 192 169 173 200 206 192 198 206 215 226 192 228 252 180 151 161 152 169 213 210 182 198 239 275 245 232 273 302 230 257 285 284 285 296 220 226 68 55 89 180 189 179 178 158 131 145 152 132 126 115 114 111 108
275 248 127 53 354 346 342 270 253 242 234 240 265 49 6 320 328 320 302 252 241 232 241 260 164 188 193 178 171 171 192 211 204 203 202 183 180 179 188 202 196 192 198 208 219 210 200 241 225 140 145 175 190 203 222 209 187 200 220 215 207 219 265 268 254 277 285 285 292 282 285 87 88 123 199 181 165 174 151 124 137 151 127 118 111 109 108 110
270 244 112 44 351 349 311 253 236 249 243 220 283 327 348 329 320 324 339 231 242 247 271 287 260 189 179 182 195 185 194 217 216 218 207 184 210 210 178 197 200 176 180 202 210 206 204 230 238 163 166 199 195 184 245 276 246 215 210 215 217 213 222 238 223 203 258 283 297 297 316 84 105 147 204 164 156 168 144 122 143 154 124 112 111 108 105 105
253 247 88 25 345 320 271 257 202 259 256 240 330 301 320 322 306 319 21 206 233 233 241 258 266 234 199 207 221 194 205 225 214 221 225 200 219 218 154 184 198 174 176 201 201 198 214 242 246 222 204 191 150 117 336 312 299 274 240 236 236 225 229 240 240 215 218 244 283 281 294 87 108 139 205 153 150 156 140 132 150 142 118 115 114 107 105 103
276 341 68 10 342 287 263 256 174 209 241 15 331 278 258 283 294 314 351 223 227 219 216 220 222 220 194 225 258 213 215 233 224 229 240 227 230 213 133 163 188 187 192 201 190 179 194 234 235 237 233 179 108 111 147 243 260 252 233 233 241 236 237 248 270 292 247 219 247 265 255 111 119 137 159 145 145 149 142 138 136 118 112 119 111 105 107 106
336 326 26 355 343 272 271 292 214 223 37 356 314 265 186 248 305 329 341 11 14 272 240 172 150 267 62 296 277 223 214 232 222 227 250 249 235 56 133 179 186 195 200 195 178 168 181 214 218 222 214 192 178 178 171 173 211 234 227 218 226 232 237 244 253 264 255 249 279 289 314 105 120 138 150 146 147 148 135 120 111 110 120 121 108 106 110 108
303 241 203 346 341 264 296 2 340 325 2 328 312 26 20 195 153 341 331 353 7 342 325 37 28 325 36 194 230 122 196 243 230 209 255 253 183 95 173 200 200 209 206 185 173 178 190 202 205 222 212 196 203 204 196 199 202 219 231 219 217 223 224 224 225 232 238 282 291 288 17 115 132 141 151 155 153 144 127 122 122 116 115 108 101 106 112 108
305 222 177 165 147 358 63 48 331 318 349 334 324 10 356 16 112 351 318 349 18 4 2 39 13 280 12 218 207 116 127 213 260 182 207 289 216 124 114 198 214 214 167 104 197 194 202 213 211 240 244 223 228 174 63 259 221 217 223 215 213 218 219 221 233 238 240 336 280 284 101 138 153 152 157 159 153 142 133 133 130 117 108 106 103 107 110 107
312 322 7 359 181 159 153 93 3 348 345 335 332 355 352 4 30 18 8 7 6 354 349 59 57 23 19 357 247 102 96 153 156 18 30 357 332 145 124 189 215 204 135 176 211 203 214 222 213 236 253 260 306 7 47 269 242 233 234 224 215 214 213 220 231 231 176 248 249 167 149 167 159 153 159 158 150 146 138 128 120 114 112 110 113 118 114 106
347 359 27 338 294 337 94 24 360 343 339 336 333 348 356 12 20 23 7 330 343 356 341 93 65 40 27 4 322 11 50 145 98 32 20 2 348 157 134 143 183 183 181 199 204 203 224 217 202 224 239 245 276 276 241 245 244 241 245 233 220 214 214 219 224 208 215 248 271 159 181 174 143 149 158 148 139 133 122 117 117 117 114 112 116 118 105 93
2 32 56 317 299 350 346 335 323 310 332 344 349 9 6 10 19 17 346 312 345 19 10 39 40 25 28 11 349 26 35 21 28 19 7 354 345 325 119 110 155 176 194 196 188 208 241 210 186 223 236 229 232 232 223 229 228 225 234 234 224 218 217 220 216 197 209 250 342 171 176 138 120 149 149 130 125 120 114 115 118 117 115 115 115 105 93 83
1 8 9 307 285 333 319 319 307 281 311 341 350 15 2 4 13 2 338 321 344 11 10 12 6 357 6 19 17 53 42 6 337 330 329 332 336 349 37 61 141 176 196 197 182 198 232 193 178 219 227 203 194 208 207 211 210 203 207 216 216 213 212 212 204 191 201 222 177 173 161 116 102 126 125 118 121 122 120 117 116 115 115 116 112 100 88 80
359 355 345 304 286 352 307 310 308 277 296 14 12 9 356 6 5 346 324 324 338 352 3 357 348 335 326 53 49 40 12 338 307 298 301 299 299 313 335 350 165 181 192 195 183 190 213 198 173 217 224 189 166 194 195 193 196 193 179 169 193 207 206 201 191 193 203 174 164 175 166 136 118 120 120 124 126 124 124 121 116 112 110 109 107 100 91 84
358 351 336 303 266 348 311 285 283 268 267 39 20 359 340 343 349 341 339 69 6 5 1 344 334 323 314 63 34 357 333 314 300 295 291 279 272 276 276 274 274 240 201 197 194 194 211 214 189 210 221 188 169 193 187 188 198 191 155 118 199 202 190 177 154 148 176 165 166 181 148 130 134 135 134 138 135 126 124 123 119 113 109 106 101 98 96 94
Height
824 822 820 818 816 814 812 810 809 806 805 803 801 800 798 796 795 793 792 791 790 789 788 787 786 785 785 785 784 784 782 781 780 779 779 775 773 774 774 774 775 776 778 780 782 782 782 783 782 782 782 781 780 779 778 776 773 778 783 792 799 799 800 799 795 799 803 804 805 803 803 806 807 805 798 796 800 801 801 799 797 796 795 795 796 796 798 801
824 822 820 818 816 813 812 810 808 806 804 802 801 799 797 795 794 792 791 790 789 788 787 786 785 785 784 784 783 783 781 780 779 777 775 773 772 773 773 774 775 776 777 780 780 779 780 781 781 781 781 781 779 778 780 777 775 781 783 792 803 799 795 792 790 793 796 802 803 802 802 802 805 805 800 803 807 803 804 805 801 801 800 798 797 799 801 802
824 822 820 818 816 813 811 809 807 806 804 802 800 798 796 794 793 791 790 789 788 787 786 786 785 784 784 784 782 782 781 779 778 774 772 771 771 771 772 774 775 776 777 779 779 778 779 779 779 780 781 782 779 779 782 779 778 779 781 796 801 793 791 788 787 790 792 796 801 803 803 802 803 801 801 805 808 806 807 807 804 806 804 801 799 799 802 803
824 822 820 818 816 813 811 809 807 805 803 801 799 797 795 793 792 790 789 788 787 787 786 785 785 784 784 783 783 782 780 781 778 771 771 771 769 770 772 773 774 776 778 779 779 779 778 777 778 778 781 783 778 779 782 780 780 778 781 796 794 786 793 791 787 788 789 793 798 802 803 804 802 800 802 805 809 811 809 805 802 804 802 801 799 799 801 803
824 822 820 818 815 813 810 808 806 804 802 800 798 796 794 792 791 789 788 787 786 786 785 785 784 783 784 783 783 781 782 789 779 769 772 770 769 770 771 773 774 777 778 779 779 778 778 777 778 779 781 782 779 780 782 778 777 782 785 789 785 784 794 792 786 789 790 791 796 802 805 803 800 801 803 805 810 809 803 799 796 797 798 798 798 799 801 802
825 822 820 818 815 813 810 808 805 803 801 799 797 794 793 791 789 788 787 786 785 785 785 784 784 783 784 783 783 781 785 791 777 769 773 769 770 770 772 774 775 777 779 778 778 778 778 777 780 782 781 780 781 782 783 777 775 787 790 784 783 784 792 792 788 791 791 793 799 801 799 797 801 804 801 803 806 800 794 792 791 792 794 796 797 799 801 802
824 822 820 817 815 812 809 807 805 802 800 798 796 793 791 790 788 787 786 785 785 784 784 784 784 783 783 783 783 781 782 782 772 772 773 770 772 771 773 775 775 778 778 777 777 777 778 779 782 781 780 781 782 782 782 779 776 786 792 787 785 785 789 790 789 792 792 796 798 796 796 798 804 805 801 802 800 793 792 789 789 790 792 796 798 799 801 802
824 822 819 817 814 812 809 806 804 801 799 796 794 792 790 788 787 786 784 785 784 784 784 784 784 783 783 783 782 781 780 776 772 773 772 771 772 772 775 776 777 779 777 777 776 775 777 780 781 778 782 783 780 781 780 781 782 785 791 789 786 787 788 788 789 793 793 795 795 795 799 800 800 800 801 802 796 792 792 790 789 790 792 796 798 800 801 802
824 822 819 817 814 811 809 805 803 801 798 795 793 790 789 787 785 784 783 783 783 784 783 783 784 783 784 782 781 785 779 773 773 773 772 772 773 774 776 776 778 778 776 777 774 775 778 778 779 776 783 782 777 780 779 784 789 785 787 787 787 789 788 788 790 792 793 794 794 798 802 799 795 797 802 798 793 792 791 792 791 791 795 796 798 800 802 803
824 821 819 817 814 811 808 805 802 800 797 794 791 789 787 785 784 783 782 783 783 783 783 784 784 783 785 782 783 787 776 771 774 774 773 774 774 775 777 777 777 777 776 776 774 775 775 776 775 771 777 777 776 780 778 783 786 781 783 786 787 790 787 787 790 791 792 794 795 799 802 799 793 798 806 797 790 791 792 794 792 793 797 796 797 799 801 803
824 821 819 816 813 811 807 805 802 799 796 793 790 788 786 784 783 782 782 783 783 783 783 783 783 784 784 782 786 784 772 771 775 774 775 775 775 776 776 777 777 777 776 774 775 774 773 774 771 771 777 776 776 780 779 778 778 779 783 789 790 789 789 788 790 792 793 796 795 796 801 800 795 799 804 795 789 790 793 796 794 795 797 795 796 798 800 802
823 821 818 816 813 810 807 805 801 798 795 792 790 787 785 784 782 782 782 782 782 783 783 783 784 784 784 783 783 777 771 773 774 774 776 775 776 777 776 777 776 776 776 774 774 773 774 773 771 778 779 774 779 785 781 773 775 780 781 792 796 792 794 792 791 791 793 797 793 796 806 805 801 799 795 790 788 789 793 796 795 796 796 795 796 797 799 800
822 820 818 815 813 810 807 804 801 798 794 791 789 786 785 783 782 783 782 783 783 783 783 784 784 784 786 783 776 772 772 773 773 774 776 776 777 777 776 777 776 777 776 775 774 773 775 774 774 777 773 774 782 781 776 772 777 783 781 789 795 797 800 792 790 792 794 798 792 798 814 810 802 796 790 788 788 791 796 797 796 796 796 796 796 797 798 797
822 820 817 814 812 809 807 804 801 797 794 791 788 787 785 783 783 783 783 783 783 783 784 784 785 785 786 780 771 771 772 772 773 773 774 775 776 776 776 776 776 776 776 775 775 774 775 773 773 774 771 774 776 774 777 779 781 784 787 789 789 800 806 792 788 795 798 798 791 800 814 810 802 795 789 788 787 791 797 797 797 798 798 798 797 797 796 795
821 819 816 814 811 809 806 803 800 797 794 791 788 787 785 784 784 783 784 784 783 784 784 785 785 784 784 778 770 771 772 771 772 772 773 774 774 774 774 775 775 775 776 776 775 775 775 773 774 777 775 771 773 780 786 787 784 784 794 797 787 794 803 793 787 792 798 796 790 802 812 807 803 795 788 786 787 791 796 797 796 798 799 800 798 796 796 795
820 818 815 813 810 808 805 802 799 796 793 790 789 788 786 785 785 784 785 784 784 785 784 786 784 784 786 778 770 771 771 770 771 771 772 773 773 772 773 775 774 775 776 775 775 775 774 774 774 774 776 776 779 785 787 789 790 786 792 798 792 791 798 802 795 785 791 795 792 801 808 805 802 795 788 786 788 792 796 797 797 799 800 800 799 796 796 798
819 817 814 812 809 807 804 802 799 796 793 791 789 788 787 786 785 785 785 785 785 784 784 785 782 784 783 773 771 773 770 770 771 771 771 772 772 772 773 773 772 773 774 774 775 774 773 775 776 775 776 779 780 783 793 800 797 789 786 790 791 789 796 808 804 787 786 794 796 799 802 802 798 791 789 787 787 792 796 797 796 797 799 799 799 796 796 799
818 816 813 811 808 805 803 801 798 795 792 790 789 789 788 786 786 786 786 785 785 784 785 784 783 789 785 773 773 773 769 770 771 771 771 771 771 772 772 771 770 772 775 777 776 775 776 775 776 782 782 781 782 785 798 804 798 795 792 790 791 788 792 799 798 790 789 795 798 800 802 800 795 789 788 787 786 791 794 794 794 794 796 798 798 796 795 797
817 815 812 810 807 804 802 800 797 794 792 790 789 789 788 787 786 786 786 786 786 785 785 783 781 786 785 775 770 769 769 770 771 770 770 770 771 772 771 771 770 773 780 783 781 776 777 779 783 790 789 785 784 784 790 792 790 793 791 790 792 790 789 789 789 786 786 796 800 799 801 798 795 792 789 787 786 790 793 792 793 794 794 796 797 796 794 794
816 813 811 808 806 803 801 799 796 793 791 790 789 789 788 787 786 785 784 782 781 778 776 776 774 775 776 771 768 769 769 769 770 768 768 769 770 771 771 771 773 777 781 784 783 774 775 789 793 789 785 781 780 780 781 781 783 787 787 787 787 788 790 786 787 785 781 795 800 795 798 797 794 792 789 788 788 791 794 794 794 793 794 794 794 794 792 791
814 812 809 807 804 802 800 797 795 793 791 789 789 789 787 786 788 788 784 778 772 770 772 770 770 772 771 769 769 770 771 771 768 765 768 768 767 774 775 774 782 786 781 779 780 775 780 795 791 779 776 776 777 777 778 781 783 785 785 786 784 785 789 785 786 785 780 794 799 794 797 796 793 793 790 789 792 793 793 794 795 792 792 792 792 792 790 788
813 811 807 805 802 800 798 796 793 792 791 790 789 786 784 785 788 787 786 783 772 767 770 769 770 771 767 768 769 770 774 776 772 767 766 766 769 776 776 776 786 786 778 780 785 787 792 794 781 772 772 775 778 777 780 784 783 783 782 784 784 783 788 791 788 784 783 794 798 794 796 795 792 793 792 790 790 791 789 790 792 791 792 791 791 791 789 789
813 809 806 804 800 798 797 794 792 791 790 790 788 785 785 787 786 785 787 787 778 769 769 770 771 771 768 768 768 769 775 776 774 769 764 767 771 772 775 780 784 781 781 785 789 795 797 786 770 769 774 778 781 779 781 783 780 779 779 782 784 781 788 795 793 787 786 790 792 793 795 793 793 794 794 791 788 789 788 788 789 789 791 790 788 789 789 790
811 808 805 802 798 797 794 792 790 790 791 789 788 787 786 787 786 787 786 784 780 771 767 767 768 768 768 766 765 769 773 770 769 767 762 767 771 771 775 777 781 784 783 783 785 790 789 778 768 772 777 781 785 781 780 784 779 772 775 781 782 781 782 786 789 789 788 789 787 791 800 796 793 798 796 792 790 790 790 789 790 789 787 788 787 788 789 790
810 807 804 800 797 795 792 791 789 789 790 787 787 787 786 787 785 786 787 785 782 773 767 767 767 766 763 764 766 765 768 768 765 763 760 762 767 773 776 773 779 787 784 782 787 788 783 773 771 779 780 779 786 784 778 784 783 775 776 778 776 779 781 782 788 790 797 805 793 790 811 808 794 796 797 793 793 793 791 790 791 790 788 789 790 789 789 790
808 806 802 800 796 793 791 789 788 789 788 785 786 786 786 787 784 786 789 788 783 775 772 771 770 767 762 764 764 761 772 773 760 758 760 761 761 768 778 778 778 784 781 781 786 784 778 772 774 782 782 780 785 784 776 778 785 784 779 774 772 775 780 784 788 789 800 814 798 787 809 814 802 802 797 792 795 794 792 791 789 790 791 790 790 790 790 790
807 804 801 799 795 793 791 788 789 789 786 785 785 785 786 785 784 786 790 794 788 776 773 773 770 767 763 763 760 767 783 774 760 761 760 762 761 762 778 782 781 783 776 781 794 785 776 778 781 782 784 785 786 783 774 774 785 787 776 772 773 775 780 782 783 786 790 798 795 786 796 809 813 812 798 791 797 796 793 793 790 789 790 790 790 789 790 790
804 802 800 797 794 794 792 790 790 787 785 785 784 785 786 784 785 786 793 805 793 772 770 771 766 763 761 761 760 768 774 766 770 772 757 760 764 765 779 780 778 782 774 785 801 785 773 781 783 781 786 787 782 777 772 773 783 782 772 771 772 773 777 776 779 785 785 794 802 792 791 807 815 811 799 794 798 799 796 792 790 790 790 791 790 789 789 789
802 800 797 794 792 791 789 789 788 785 784 783 783 785 784 783 786 786 795 804 787 768 767 768 767 765 763 765 766 767 766 764 773 770 757 763 764 764 777 775 773 780 777 782 791 781 775 777 777 781 786 782 776 773 771 775 780 775 770 772 771 772 774 775 780 785 790 803 808 796 791 807 818 809 798 799 800 798 793 788 788 789 790 791 790 789 789 788
799 797 794 791 789 788 788 786 784 783 783 782 784 784 782 785 788 793 804 799 780 770 769 768 770 769 768 773 774 770 768 768 767 764 763 767 764 764 769 767 770 779 780 781 783 779 774 772 772 778 779 774 773 773 772 774 773 771 772 774 777 778 777 779 780 785 802 812 805 793 788 803 821 813 798 799 798 791 789 787 788 789 789 791 789 788 788 787
795 793 791 788 786 787 787 784 781 781 782 782 784 782 784 787 787 798 804 785 773 775 771 770 772 770 770 776 777 773 773 771 767 769 773 771 771 773 775 776 779 784 788 787 785 779 777 779 777 772 768 769 773 775 773 770 768 772 774 776 785 789 788 792 791 795 814 817 803 792 785 800 823 816 797 795 789 783 786 787 789 791 791 790 789 788 788 788
792 789 787 784 783 784 783 782 780 781 781 782 783 780 786 792 791 794 788 775 778 781 771 772 773 770 772 774 774 773 774 774 769 771 774 774 777 778 779 782 783 793 800 793 787 784 781 780 774 768 766 768 776 780 778 774 772 775 777 781 795 803 807 813 808 806 813 811 800 790 791 806 815 805 794 791 785 781 782 782 785 789 790 790 789 789 788 788
789 785 783 782 781 781 780 780 780 781 781 782 782 780 787 798 796 785 777 775 781 775 767 770 770 769 774 776 776 773 773 775 772 771 772 772 777 776 775 774 773 787 795 787 787 791 788 779 771 775 772 765 772 782 784 782 778 779 779 785 800 809 821 827 816 807 808 805 795 788 796 807 805 798 790 785 782 779 778 780 783 785 787 788 788 787 788 788
785 783 782 781 780 780 778 779 779 779 781 781 782 784 793 799 790 779 776 774 773 769 767 771 771 773 776 776 775 771 775 778 771 773 776 776 782 781 777 776 774 778 783 785 788 790 797 792 775 775 773 764 769 772 770 771 773 773 768 774 791 797 810 821 813 807 809 805 798 797 803 805 803 800 786 777 778 776 776 780 781 783 785 786 786 787 788 790
783 782 782 780 780 779 777 778 778 779 780 780 782 788 794 792 781 776 776 771 769 770 770 769 771 778 779 775 772 768 773 778 772 774 778 778 782 780 775 776 775 776 782 792 789 783 795 792 766 761 763 760 767 763 755 766 778 771 764 776 789 781 785 801 802 799 800 802 802 801 798 792 793 791 779 776 779 774 777 781 781 786 785 785 789 788 789 791
783 782 781 781 781 780 778 778 778 779 779 779 785 789 784 779 775 774 772 769 770 771 773 774 773 778 782 779 777 773 772 774 774 777 778 775 776 774 771 769 769 773 778 785 786 784 795 789 763 761 765 758 762 760 754 768 779 775 776 783 778 763 771 794 802 794 796 807 805 795 791 790 796 796 782 779 782 778 780 783 783 787 787 788 791 790 790 792
782 782 781 781 781 780 779 779 779 780 778 780 788 785 775 771 769 768 767 767 768 768 773 779 775 775 781 781 780 777 775 775 776 778 778 778 775 770 770 767 763 768 769 772 778 778 786 785 764 763 773 762 756 759 757 757 763 775 784 775 763 765 772 785 801 803 804 813 805 792 794 795 802 806 791 783 787 783 781 785 787 788 788 790 791 791 792 792
783 782 781 781 781 780 779 779 779 778 777 781 786 781 774 770 766 764 765 765 767 768 772 775 772 770 775 779 778 774 776 779 778 778 778 779 775 766 766 769 764 763 762 765 775 773 778 788 772 760 769 765 755 763 770 762 755 765 771 760 765 787 790 787 802 810 811 815 806 795 794 790 793 801 795 789 788 783 782 787 790 790 789 789 790 792 793 793
783 781 780 780 780 779 778 779 778 776 779 783 783 778 773 770 765 762 763 764 767 771 772 769 767 769 769 770 771 771 774 776 774 776 777 777 775 764 759 763 764 763 760 761 772 772 774 790 785 764 761 765 764 771 779 775 763 762 764 761 765 779 784 785 790 794 803 813 809 802 800 794 787 789 789 786 782 779 782 788 790 788 787 787 788 791 793 794
782 780 780 779 779 778 778 778 777 777 780 780 777 775 773 770 766 760 759 763 765 766 768 765 763 769 769 765 766 767 770 770 768 771 773 771 773 766 756 757 761 762 760 760 767 769 772 786 789 772 763 770 775 772 770 770 769 771 776 776 773 772 775 781 783 781 791 804 807 809 810 798 781 777 777 776 776 776 778 786 790 786 784 785 787 790 792 794
782 781 780 779 779 778 777 778 777 776 776 775 774 774 772 770 767 762 757 760 761 759 761 763 762 763 765 765 765 762 765 768 765 767 768 765 769 767 756 752 756 759 764 768 770 770 774 781 783 779 775 776 772 759 755 757 759 764 771 771 771 772 777 792 798 785 781 792 796 802 810 799 778 771 769 767 772 774 773 781 787 783 784 787 787 789 791 792
782 782 780 778 778 777 778 779 775 774 775 774 773 773 771 770 768 764 759 759 761 758 757 761 761 760 761 761 760 759 763 766 764 765 765 761 761 760 753 747 750 754 762 771 769 762 766 774 781 781 772 765 761 753 753 756 752 755 761 759 760 764 772 792 804 791 782 787 784 786 803 801 780 770 768 764 768 770 771 777 781 781 784 788 787 789 790 791
783 782 778 777 777 775 779 780 775 774 774 770 769 769 768 769 768 764 761 760 761 760 760 760 758 758 759 757 757 760 762 764 764 761 760 759 754 750 747 747 750 753 758 766 766 761 766 777 786 786 770 758 757 755 754 755 757 763 762 757 759 763 764 772 779 778 782 787 785 789 804 801 782 771 769 765 765 768 771 775 778 783 787 788 788 789 790 792
787 784 778 777 776 775 780 782 778 776 774 771 771 769 766 766 767 766 765 762 760 760 761 759 756 756 757 755 757 760 761 766 766 759 758 761 755 747 746 747 750 754 756 758 759 763 774 781 785 792 791 785 780 776 772 767 766 767 762 756 759 759 760 765 767 774 785 785 782 793 806 799 781 773 771 769 769 771 773 775 779 785 789 788 788 790 791 792
789 786 780 776 774 774 779 782 781 780 778 776 775 772 769 767 764 765 765 763 758 757 759 758 755 753 753 754 757 758 758 764 766 760 758 759 754 749 749 748 749 750 749 748 748 755 768 775 779 789 799 802 800 792 783 774 767 764 760 758 760 759 763 771 774 783 794 789 782 789 799 795 781 776 776 774 773 776 777 779 782 785 787 787 789 791 792 792
790 787 784 778 773 774 778 779 780 782 781 780 779 776 774 771 765 761 762 763 759 755 757 757 753 754 755 756 760 761 759 759 761 761 760 758 754 751 750 750 749 748 748 749 748 752 764 770 772 778 782 783 785 779 767 763 765 767 764 762 762 760 760 765 776 785 788 790 790 784 784 790 787 782 781 777 776 780 780 781 784 785 786 788 790 791 791 792
792 792 792 789 783 780 780 779 781 783 782 783 784 780 777 774 769 764 761 762 759 756 758 756 754 759 762 761 763 764 761 759 760 761 761 759 753 750 751 751 750 750 752 753 748 753 769 775 769 772 772 767 768 768 763 764 768 767 766 764 762 759 759 766 777 779 777 790 799 784 775 786 787 780 780 779 778 781 781 781 785 786 787 788 789 791 791 792
795 796 796 798 795 789 786 786 787 785 783 782 782 781 779 776 775 775 769 763 758 757 760 762 759 761 763 763 765 766 764 763 764 764 762 760 755 752 754 753 751 751 753 753 748 751 768 774 765 767 769 763 764 766 764 766 767 766 766 766 762 761 763 767 771 771 774 786 792 781 775 780 780 777 778 776 776 779 780 781 783 785 786 788 789 790 791 792
798 798 796 797 797 794 791 791 790 787 785 784 783 783 783 781 781 781 776 771 766 761 762 769 768 763 761 761 763 769 772 772 773 770 764 763 760 755 757 759 754 750 750 753 751 751 762 768 763 765 769 766 765 766 763 765 767 768 768 766 763 762 762 763 766 768 771 776 774 771 774 777 774 774 774 771 774 778 780 781 783 785 788 789 790 791 792 792
809 808 806 801 796 793 792 790 789 787 784 784 786 786 786 785 785 783 776 776 778 771 766 772 773 766 763 761 762 770 773 774 778 774 766 767 765 757 758 760 755 752 752 753 753 754 763 769 763 763 771 771 767 764 763 764 767 770 771 767 764 764 764 765 767 767 769 773 769 767 776 782 775 769 770 773 775 779 782 785 786 787 788 789 791 792 793 793
818 817 815 810 800 795 794 791 789 788 786 786 790 790 789 787 787 785 777 772 776 777 773 775 775 768 763 762 765 769 768 768 771 767 761 765 763 757 757 754 751 755 756 753 755 756 761 767 765 766 776 775 767 765 765 762 764 771 773 771 768 768 767 766 765 764 767 772 773 772 781 788 779 770 774 777 777 781 786 787 788 788 788 789 791 793 794 795
821 818 817 814 805 797 794 792 788 789 791 793 794 794 792 789 785 784 782 773 770 772 772 773 774 770 765 767 770 769 765 763 762 757 754 755 753 750 751 748 747 753 754 753 755 755 757 763 765 769 779 777 767 765 764 765 776 782 775 770 769 768 768 767 766 765 762 763 772 777 777 778 774 772 777 780 779 784 786 786 788 790 790 791 791 792 794 795